Regional Weather Roundup
Issued by NWS Binghamton, NY

Current Version | Previous Version | Text Only | Print | Product List | Glossary On
Versions: 1 2 3 4 5 6 7 8 9 10 11 12 13 14 15 16 17 18 19 20 21 22 23 24 25 26 27 28 29 30 31 32 33 34 35 36 37 38 39 40 41 42 43 44 45 46 47 48 49
000
ASUS41 KBGM 041710
RWRBGM
RWRBGM
BINGHAMTON REGIONAL WEATHER ROUNDUP
NATIONAL WEATHER SERVICE BINGHAMTON NY
1200 PM EST WED MAR 04 2015

Note: "fair" indicates few or no clouds below 12,000 feet with no
significant weather and/or obstructions to visibility.

* = Station(s) that does not report precipitation, such as rain,
snow, etc, also no thunder or fog.

!NYZ009-015>018-022>025-036-037-044>046-055>057-062-041800
...CENTRAL NEW YORK...

CITY           SKY/WX    TMP DP  RH WIND       PRES   REMARKS
BINGHAMTON     CLOUDY    35  28  75 W13       29.81F WCI  26
CORTLAND       CLOUDY    34  30  86 W3        29.85S
DANSVILLE      CLOUDY    35  25  66 W6        29.87F WCI  30
ELMIRA         CLOUDY    39  29  67 W8        29.84S WCI  33
ITHACA         CLOUDY    35  28  76 NW9       29.86R WCI  28
MONTICELLO     CLOUDY    34  32  93 W7        29.83S WCI  28
NORWICH        CLOUDY    36  28  75 NW3       29.83F
ONEONTA        CLOUDY    30  30 100 W7        29.80S WCI  23
PENN YAN       CLOUDY    36  26  67 W15       29.86R WCI  27
ROME           CLOUDY    32  26  78 W10       29.87S WCI  24
SIDNEY         CLOUDY    39  34  81 NW5       29.83F
SYRACUSE       CLOUDY    30  26  85 W8        29.87S WCI  22
$$

!PAZ038>040-043-044-047-048-072-041800
...NORTHEAST PENNSYLVANIA...

CITY           SKY/WX    TMP DP  RH WIND       PRES   REMARKS
HAZLETON       CLOUDY    36  34  93 NW6       29.87R FOG     WCI  31
SCRANTON       CLOUDY    39  33  79 SW12      29.86S HAZE    WCI  32
TOWANDA*       PTSUNNY   37  30  75 CALM      29.86R
$$
&&
KEY
WCI = WIND CHILL INDEX
VSB = VISIBILITY
HX  = HEAT INDEX
$$


USA.gov is the U.S. government's official web portal to all federal, state and local government web resources and services.